Belden, MS

2:21 PM CST on February 10, 2016 (GMT -0600)
Tupelo Regional

Weather History for KTUP - October, 2011

Change the Weather History Date:

Thursday, October 13, 2011

  Actual Average Record
Temperature  
Mean Temperature 68 °F 64 °F  
Max Temperature 76 °F 76 °F 94 °F (1963)
Min Temperature 59 °F 52 °F 29 °F (1977)
Degree Days  
Heating Degree Days 0 4  
Month to date heating degree days 26 33  
Since 1 July heating degree days 34 45  
Cooling Degree Days 3 3  
Month to date cooling degree days 22 47  
Year to date cooling degree days 2251 2005  
Growing Degree Days 17 (Base 50)    
Moisture  
Dew Point 57 °F    
Average Humidity 70    
Maximum Humidity 97    
Minimum Humidity 43    
Precipitation  
Precipitation T in 0.14 in 4.15 in (2001)
Month to date precipitation 0.16 1.74  
Year to date precipitation 39.97 41.65  
Snow  
Snow 0.00 in 0.00 in 0.00 in (2002)
Month to date snowfall 0.0 0.0  
Since 1 July snowfall 0.0 0.0  
Since 1 September snowfall 0.0 0.0  
Snow Depth -    
Sea Level Pressure  
Sea Level Pressure 29.72 in    
Wind  
Wind Speed 7 mph (WNW)    
Max Wind Speed 15 mph    
Max Gust Speed 26 mph    
Visibility 10 miles    
Events      
T = Trace of Precipitation, MM = Missing Value Source: NWS Daily Summary

Daily Weather History Graph

Daily Weather History Graph

Search for Another Location

Airport or City:

Trip Planner

Search our weather history database for the weather conditions in past years. The results will help you decide how hot, cold, wet, or windy it might be!

Date:

Astronomy

Oct. 13, 2011 Rise Set
Actual Time 6:58 AM CDT 6:23 PM CDT
Civil Twilight 6:33 AM CDT 6:48 PM CDT
Nautical Twilight 6:04 AM CDT 7:17 PM CDT
Astronomical Twilight 5:35 AM CDT 7:46 PM CDT
Moon 7:06 PM CDT (10/13) 8:23 AM CDT (10/13)
Length of Visible Light 12h 15m
Length of Day
11h 25m
Full, 98% of the Moon is Illuminated
Oct 13
Full
Oct 19
Last Quarter
Oct 26
New
Nov 2
First Quarter
Nov 10
Full

Hourly Weather History & Observations

Time (CDT) Temp. Dew Point Humidity Pressure Visibility Wind Dir Wind Speed Gust Speed Precip Events Conditions
12:14 AM 64.4 °F 62.6 °F 94% 29.73 in 9.0 mi SW 4.6 mph - 0.00 in   Overcast
12:53 AM 64.0 °F 62.1 °F 93% 29.71 in 8.0 mi SW 4.6 mph - 0.00 in   Overcast
1:14 AM 64.4 °F 62.6 °F 94% 29.71 in 8.0 mi West 3.5 mph - N/A   Overcast
1:53 AM 63.0 °F 61.0 °F 93% 29.70 in 10.0 mi West 6.9 mph - N/A   Overcast
2:53 AM 63.0 °F 61.0 °F 93% 29.70 in 10.0 mi West 6.9 mph - N/A   Overcast
3:23 AM 62.6 °F 60.8 °F 94% 29.71 in 10.0 mi Variable 4.6 mph - N/A   Overcast
3:53 AM 62.1 °F 59.0 °F 90% 29.72 in 10.0 mi WNW 8.1 mph 16.1 mph N/A   Overcast
4:10 AM 62.6 °F 59.0 °F 88% 29.71 in 10.0 mi West 6.9 mph - N/A   Mostly Cloudy
4:25 AM 62.6 °F 59.0 °F 88% 29.71 in 10.0 mi West 4.6 mph - N/A   Mostly Cloudy
4:53 AM 61.0 °F 59.0 °F 93% 29.69 in 10.0 mi SW 4.6 mph - N/A   Overcast
5:36 AM 60.8 °F 59.0 °F 94% 29.69 in 10.0 mi SSW 3.5 mph - 0.00 in   Overcast
5:53 AM 61.0 °F 57.9 °F 90% 29.68 in 10.0 mi SSW 3.5 mph - 0.00 in   Mostly Cloudy
6:02 AM 60.8 °F 57.2 °F 88% 29.70 in 10.0 mi SW 3.5 mph - N/A   Partly Cloudy
6:34 AM 60.8 °F 59.0 °F 94% 29.71 in 10.0 mi Calm Calm - N/A   Mostly Cloudy
6:53 AM 61.0 °F 59.0 °F 93% 29.71 in 10.0 mi WNW 4.6 mph - N/A   Overcast
7:21 AM 60.8 °F 57.2 °F 88% 29.72 in 10.0 mi Variable 3.5 mph - N/A   Overcast
7:31 AM 60.8 °F 59.0 °F 94% 29.72 in 10.0 mi West 4.6 mph - N/A   Overcast
7:46 AM 62.6 °F 57.2 °F 82% 29.72 in 10.0 mi Calm Calm - N/A   Mostly Cloudy
7:53 AM 61.0 °F 57.9 °F 90% 29.69 in 10.0 mi Calm Calm - N/A   Mostly Cloudy
8:53 AM 62.1 °F 59.0 °F 90% 29.72 in 10.0 mi West 8.1 mph - 0.00 in   Scattered Clouds
9:53 AM 64.9 °F 59.0 °F 81% 29.73 in 10.0 mi WNW 8.1 mph - N/A   Scattered Clouds
10:53 AM 69.1 °F 57.0 °F 65% 29.73 in 10.0 mi NNW 8.1 mph 16.1 mph N/A   Partly Cloudy
11:53 AM 70.0 °F 55.0 °F 59% 29.73 in 10.0 mi NW 8.1 mph 19.6 mph N/A   Scattered Clouds
12:53 PM 73.0 °F 55.9 °F 55% 29.71 in 10.0 mi NW 10.4 mph - N/A   Mostly Cloudy
1:53 PM 73.9 °F 55.0 °F 52% 29.70 in 10.0 mi North 8.1 mph 17.3 mph N/A   Scattered Clouds
2:53 PM 75.0 °F 54.0 °F 48% 29.69 in 10.0 mi NNW 15.0 mph 24.2 mph N/A   Mostly Cloudy
3:53 PM 75.0 °F 52.0 °F 44% 29.69 in 10.0 mi NW 11.5 mph 19.6 mph N/A   Partly Cloudy
4:53 PM 73.9 °F 51.1 °F 45% 29.71 in 10.0 mi NW 11.5 mph 17.3 mph N/A   Partly Cloudy
5:53 PM 72.0 °F 52.0 °F 49% 29.72 in 10.0 mi NW 8.1 mph - N/A   Partly Cloudy
6:53 PM 68.0 °F 53.1 °F 59% 29.74 in 10.0 mi Calm Calm - N/A   Clear
7:53 PM 64.0 °F 54.0 °F 70% 29.76 in 10.0 mi WNW 3.5 mph - N/A   Clear
8:53 PM 63.0 °F 52.0 °F 67% 29.78 in 10.0 mi WNW 3.5 mph - N/A   Clear
9:53 PM 60.1 °F 52.0 °F 75% 29.81 in 10.0 mi West 4.6 mph - N/A   Clear
10:53 PM 59.0 °F 51.1 °F 75% 29.81 in 10.0 mi WNW 4.6 mph 26.5 mph N/A   Clear
11:53 PM 60.1 °F 48.9 °F 67% 29.82 in 10.0 mi WNW 4.6 mph - N/A   Clear